Location: Branche des Alpilles
(43.6087°N, 4.6976°E)
Time: 05:14:51
(UTC+00:00)

Cosmos 1943 Rocket - Pass Details

Date: 30 November 2020
Orbit: 811 x 845 km, 71.0° (Epoch: 24 January)

Event Time Altitude Azimuth Distance (km) Brightness Sun altitude
Rises 16:28:39 0° 341° (NNW) 3,356 5.2 -4.5°
Reaches altitude 10° 16:31:19 10° 351° (N) 2,425 4.4 -4.9°
Maximum altitude 16:36:20 34° 55° (NE) 1,339 2.8 -5.7°
Drops below altitude 10° 16:41:22 10° 120° (ESE) 2,433 4.3 -6.6°
Sets 16:44:02 0° 130° (SE) 3,368 5.1 -7.0°
